{"data":{"norad_id":51861,"epoch":"2026-05-24T22:56:45.921120Z","epoch_age_seconds":79619,"freshness":"FRESH","line1":"1 51861U 22022K   26144.95608705  .00000122  00000+0  25729-4 0  9999","line2":"2 51861  53.2155  26.7490 0001323  88.9427 271.1716 15.08837897234548","mean_motion":15.08837897,"eccentricity":0.0001323,"inclination_deg":53.2155,"raan_deg":26.749,"arg_perigee_deg":88.9427,"mean_anomaly_deg":271.1716,"bstar":2.5729e-5,"rev_number":23454,"period_min":95.437687697474,"perigee_km":538.83458057536,"apogee_km":540.66505342714,"semimajor_km":6917.8868170013,"source":"CELESTRAK","updated_at":"2026-05-25T13:38:16.961154Z"}}